Weather History for Holland, MI

Change the Weather History Date:

Tuesday, May 14, 2013

  Actual Average Record
Temperature  
Mean Temperature 64 °F 58 °F  
Max Temperature 79 °F 68 °F 88 °F (1991)
Min Temperature 49 °F 48 °F 32 °F (1984)
Degree Days  
Heating Degree Days 1 8  
Month to date heating degree days 75 134  
Since 1 July heating degree days 5878 6013  
Cooling Degree Days 0 1  
Month to date cooling degree days 15 8  
Year to date cooling degree days 21 12  
Growing Degree Days 12 (Base 50)    
Moisture  
Dew Point 43 °F    
Average Humidity 54    
Maximum Humidity 67    
Minimum Humidity 40    
Precipitation  
Precipitation T in 0.11 in 0.83 in (2004)
Month to date precipitation 0.33 1.55  
Year to date precipitation 16.17 10.96  
Sea Level Pressure  
Sea Level Pressure 29.81 in    
Wind  
Wind Speed 12 mph (South)    
Max Wind Speed 28 mph    
Max Gust Speed 37 mph    
Visibility 10 miles    
Events      
T = Trace of Precipitation, MM = Missing Value Source: NWS Daily Summary

Daily Weather History Graph

Daily Weather History Graph

Search for Another Location

Airport:

Trip Planner

Search our weather history database for the weather conditions in past years. The results will help you decide how hot, cold, wet, or windy it might be!

Date:

Astronomy

May. 14, 2013 Rise Set
Actual Time 6:22 AM EDT 8:59 PM EDT
Civil Twilight 5:50 AM EDT 9:31 PM EDT
Nautical Twilight 5:09 AM EDT 10:12 PM EDT
Astronomical Twilight 4:23 AM EDT 10:58 PM EDT
Moon 10:01 AM EDT (5/14) 12:07 AM EDT (5/14)
Length of Visible Light 15h 41m
Length of Day
14h 36m
Waxing Crescent, 19% of the Moon is Illuminated
May 14
Waxing Crescent
May 18
First Quarter
May 25
Full
May 31
Last Quarter
Jun 8
New

Hourly Weather History & Observations

Time (EDT) Temp. Dew Point Humidity Pressure Visibility Wind Dir Wind Speed Gust Speed Precip Events Conditions
12:53 AM 50.0 °F 28.9 °F 44% 30.01 in 10.0 mi South 4.6 mph - N/A   Overcast
1:53 AM 50.0 °F 28.0 °F 43% 29.96 in 10.0 mi SSE 9.2 mph - N/A   Overcast
2:53 AM 51.1 °F 28.0 °F 41% 29.94 in 10.0 mi SSE 8.1 mph - N/A   Overcast
3:53 AM 51.1 °F 28.0 °F 41% 29.98 in 10.0 mi SE 8.1 mph - 0.00 in   Overcast
4:53 AM 52.0 °F 28.0 °F 40% 29.89 in 10.0 mi SSE 10.4 mph - N/A   Overcast
5:53 AM 52.0 °F 28.9 °F 41% 29.88 in 10.0 mi SSE 10.4 mph - N/A   Mostly Cloudy
6:53 AM 51.1 °F 30.9 °F 46% 29.90 in 10.0 mi SSE 10.4 mph - N/A   Clear
7:53 AM 54.0 °F 34.0 °F 47% 29.86 in 10.0 mi SSE 12.7 mph - N/A   Partly Cloudy
8:53 AM 60.1 °F 37.0 °F 42% 29.84 in 10.0 mi South 19.6 mph 25.3 mph N/A   Partly Cloudy
9:53 AM 64.0 °F 41.0 °F 43% 29.81 in 10.0 mi South 17.3 mph - N/A   Partly Cloudy
10:53 AM 69.1 °F 45.0 °F 42% 29.79 in 10.0 mi SSW 12.7 mph 20.7 mph N/A   Clear
11:53 AM 71.1 °F 46.9 °F 42% 29.79 in 10.0 mi SSW 25.3 mph 31.1 mph N/A   Clear
12:53 PM 71.1 °F 48.0 °F 44% 29.81 in 10.0 mi SW 18.4 mph - N/A   Clear
1:53 PM 72.0 °F 50.0 °F 46% 29.79 in 10.0 mi SW 18.4 mph - N/A   Clear
2:53 PM 73.0 °F 51.1 °F 46% 29.79 in 10.0 mi WSW 16.1 mph - N/A   Clear
3:53 PM 73.9 °F 51.1 °F 45% 29.79 in 10.0 mi West 12.7 mph - N/A   Clear
4:53 PM 72.0 °F 51.1 °F 48% 29.81 in 10.0 mi West 12.7 mph - N/A   Clear
5:53 PM 69.1 °F 50.0 °F 51% 29.76 in 10.0 mi NNE 3.5 mph - N/A   Partly Cloudy
6:53 PM 70.0 °F 53.1 °F 55% 29.73 in 10.0 mi SE 4.6 mph - N/A   Scattered Clouds
7:53 PM 70.0 °F 54.0 °F 57% 29.73 in 10.0 mi SSW 4.6 mph - N/A   Scattered Clouds
8:53 PM 66.9 °F 52.0 °F 59% 29.70 in 10.0 mi SSE 6.9 mph - N/A   Clear
9:53 PM 69.1 °F 52.0 °F 54% 29.67 in 10.0 mi South 8.1 mph - N/A   Clear
10:53 PM 64.9 °F 53.1 °F 65% 29.68 in 10.0 mi SSE 5.8 mph - N/A   Clear
11:53 PM 69.1 °F 52.0 °F 54% 29.62 in 10.0 mi SSE 9.2 mph - N/A   Clear